www.pogodaiklimat.ru

Погода и климат >> Архив погоды >> Россия >> Приморский край >> Сосуново


ПОГОДА в Сосуново

  • Прогноз погоды в Сосуново
  • Монитор погоды в Сосуново
  • Климат города

АРХИВ ПОГОДЫ в Сосуново

Время (UTC), дата Ветер
(напр.,м/с)
 
Видим.   Явления Облачность Т
(С)
Тd
(С)
f
(%)
Тe
(С)
Тes
(С)
Комфортность P
(гПа)
Po
(гПа)
Тmin
(С)
Tmax
(С)
R
(мм)
S
(см)
00 19.03 ЮВ 2 50 км 5/0
[Ci fib]
+4.1 -12.0 30 +2 +8 1019.5 1019.1
03 19.03 СВ 2 50 км 6/0
[Cs]
+5.5 -12.6 26 +4 +13 опасность
простуды
1018.8 1018.4
06 19.03 Ю 4 50 км 4/0
[Cs]
+6.7 -17.0 17 +4 +7 1017.7 1017.3
09 19.03 ЮЗ 3 50 км 8/0
[Cs]
+3.6 -13.7 27 +1 +1 1017.6 1017.2 +7.2
12 19.03 СЗ 2 50 км ясно -1.7 -8.7 59 -5 -5 1018.5 1018.1
15 19.03 С 4 50 км ясно +0.3 -8.3 52 -4 -4 1019.0 1018.6
18 19.03 ЮЗ 3 50 км ясно -5.7 -9.0 77 -11 -11 1019.7 1019.3
21 19.03 ЮЗ 4 50 км ясно -6.2 -9.1 80 -13 -13 1020.0 1019.6 -6.3 0
00 20.03 Ю 2 50 км ясно +2.5 -8.3 45 0 +6 1019.3 1018.9 -6.4
03 20.03 Ю 4 50 км 4/0
[Ci fib]
+2.3 -4.8 59 -2 +5 1017.8 1017.4
06 20.03 Ю 5 50 км ясно +3.0 -3.6 62 -2 +1 1016.3 1015.9
09 20.03 ЮЗ 7
{11}
50 км ясно +0.7 -3.2 75 -6 -6 1014.9 1014.5 +3.6
12 20.03 ЮЗ 3 50 км ясно -1.3 -6.4 68 -6 -6 1014.3 1013.9
15 20.03 ЮЗ 2 50 км ясно -4.6 -7.8 78 -9 -9 1013.6 1013.2
18 20.03 З 1 50 км 4/4 600 м
[Sc]
-2.4 -5.2 81 -5 -5 1012.6 1012.2
21 20.03 С 4 10 км 10/10 600 м
[Sc]
-0.6 -3.8 79 -6 -6 1011.3 1010.9 -5.5 0
00 21.03 С 7-10
{11}
2000 м ливневой снег 10/10 600 м
[Cb cap]
-1.2 -2.3 92 -9 -9 1010.0 1009.6
03 21.03 С 10-15
{17}
2000 м снег {ливн. осадки} 10/0
[As op]
-1.3 -2.1 94 -10 -10 1008.9 1008.5
06 21.03 С 10-14
{17}
2000 м снег {ливн. осадки} 10/0
[As op]
-1.4 -2.4 93 -10 -10 1008.4 1008.0
09 21.03 С 8-13
{15}
2000 м снег {метель} 10/0
[As op]
-2.2 -3.0 94 -10 -10 1009.2 1008.8 -0.6 7
12 21.03 С 5
{14}
2000 м снег {метель} 10/0
[As op]
-3.0 -4.4 90 -10 -10 1009.7 1009.3
15 21.03 СЗ 4
{13}
4000 м слабый снег 10/0
[As op]
-2.8 -5.2 84 -9 -9 1009.2 1008.8
18 21.03 С 3
{10}
4000 м слабый снег 10/0
[As op]
-2.7 -5.8 79 -8 -8 1008.4 1008.0
21 21.03 С 4 10 км слабый снег 10/0
[As op]
-2.3 -6.5 73 -8 -8 1009.1 1008.7 -3.3 3 9
00 22.03 С 4 4000 м слабый снег 10/0
[As op]
-2.2 -4.6 84 -8 -7 1009.7 1009.3
03 22.03 СВ 6 4000 м слабый снег 10/0
[As op]
-2.1 -3.6 89 -9 -8 1010.6 1010.2
06 22.03 С 7 4000 м слабый снег 10/0
[As op]
-2.6 -4.1 89 -10 -10 1011.5 1011.1
09 22.03 С 3
{11}
4000 м слабый снег 10/0
[As op]
-2.7 -5.0 84 -8 -8 1013.3 1012.9 -1.9 0.4
12 22.03 С 3 2000 м снег 10/0
[As op]
-2.9 -4.4 89 -8 -8 1014.7 1014.3
15 22.03 СЗ 2 10 км в посл. час снег 10/0
[As op]
-4.2 -6.5 84 -8 -8 1015.1 1014.7
18 22.03 ЮЗ 2 10 км {снег} 10/0
[As op]
-5.5 -7.4 86 -10 -10 1014.9 1014.5
21 22.03 ЮЗ 2 10 км слабый снег 10/0
[As op]
-5.2 -6.7 89 -10 -10 1015.3 1014.9 -5.7 0.5 11
00 23.03 штиль 0 50 км в посл. час ливневой снег 9/9 600 м
[Cb cap]
-1.6 -5.0 78 -3 -2 1015.7 1015.3
03 23.03 В 1 50 км 8/1 600 м
[Cu hum Ci fib]
0.0 -8.1 54 -1 +9 1015.1 1014.7
06 23.03 ЮЗ 4 50 км 10/3 600 м
[Cb cap Ci fib]
-0.7 -6.0 67 -6 -4 1014.7 1014.3
09 23.03 Ю 3 50 км 10/3 600 м
[Cb cap Ci fib]
-2.3 -5.0 82 -7 -7 1015.2 1014.8 +0.1 0.0
12 23.03 ЮЗ 1 50 км 8/8 600 м
[Sc]
-2.7 -4.6 87 -5 -5 1016.5 1016.1
15 23.03 Ю 2 50 км 10/0
[Cs]
-3.8 -5.8 86 -8 -8 1016.1 1015.7
18 23.03 З 3 50 км 10/0
[Cs]
-2.3 -7.7 66 -7 -7 1015.5 1015.1
21 23.03 З 4 50 км 10/0
[Cs]
-3.1 -8.6 66 -9 -9 1016.1 1015.7 -4.5 0
00 24.03 СВ 6 50 км 3/0
[Cs]
+1.6 -7.9 49 -4 -1 1016.2 1015.8
03 24.03 В 3 50 км 8/3 600 м
[Sc Cs]
+1.5 -5.7 59 -2 +3 1015.8 1015.4
06 24.03 Ю 1 50 км 9/9 600 м
[Sc]
+1.1 -5.7 60 -0 0 1015.7 1015.3
09 24.03 Ю 3 50 км 8/8 600 м
[Sc]
-0.1 -5.4 67 -4 -4 1016.9 1016.5 +2.0
12 24.03 ЮЗ 2 50 км 10/10 600 м
[Sc]
-1.1 -4.7 77 -5 -5 1017.6 1017.2
15 24.03 С 4 50 км ясно -1.3 -5.4 74 -7 -7 1018.1 1017.7
18 24.03 ЮЗ 3 50 км 5/5 600 м
[Sc]
-5.0 -6.9 86 -11 -11 1018.7 1018.3
21 24.03 ЮЗ 4 50 км ясно -5.8 -8.2 83 -12 -12 1019.2 1018.7 -6.4 0
00 25.03 Ю 2 50 км ясно +1.8 -7.6 50 -1 +6 1019.1 1018.7
03 25.03 Ю 2 50 км ясно +1.8 -7.6 50 -1 +11 1019.1 1018.7
06 25.03 Ю 5 50 км 4/4 1000 м
[Cu hum]
+2.8 -7.1 48 -2 -0 1018.2 1017.8
09 25.03 ЮЗ 4 50 км 8/0
[Cs]
+0.9 -5.4 63 -4 -4 1018.6 1018.2 +3.0
12 25.03 З 4 50 км 5/0
[Cs]
+1.1 -2.5 77 -4 -4 1018.9 1018.5
15 25.03 ЮЗ 4 50 км ясно -2.1 -3.7 89 -8 -8 1018.6 1018.1
18 25.03 ЮЗ 4 50 км ясно -3.6 -5.1 89 -10 -10 1018.5 1018.1
21 25.03 ЮЗ 5 50 км ясно -4.8 -6.5 88 -12 -12 1018.7 1018.3 -4.8 0

 

Местоположение метеостанции Сосуново (Приморский край, Россия): широта 46.55 долгота 138.30 высота над уровнем моря 4 м.

В архиве по умолчанию представлена погода в Сосуново за последнюю неделю. Архивные данные за месяц целиком и за предыдущие месяцы, начиная с января 2011 года, Вы можете получить, выбрав интересующий диапазон дат из раскрывающегося списка и нажав кнопку "Ввод!".

Внимание! Время в таблицах - всемирное. Для получения местного времени необходимо прибавить поправку, которая в Сосуново равна 10 ч.

Смотрите также архив погоды в соседних городах и на ближайших метеорологических станциях:

Погода в Охотничем (Приморский край, Россия) (107 км)
Погода в Агзу (Приморский край, Россия) (117 км)
Погода в Сукпае (Хабаровский край, Россия) (142 км)
Погода в Малой Кеме (Приморский край, Россия) (158 км)
Погода в Гвасюгах (Хабаровский край, Россия) (208 км)
Погода в Тернее (Приморский край, Россия) (217 км)
Погода на Остров Монерон (Сахалинская область, Россия) (225 км)
Погода в Красном Яре (Приморский край, Россия) (230 км)
Погода в Глубинном (Приморский край, Россия) (237 км)
Погода в Бичевой (Хабаровский край, Россия) (245 км)

Пояснения к столбцам:

Ветер - указаны скорость ветра в м/с - средняя за 10 мин, порывы в срок и между сроками (в фигурных скобках) и направление, откуда дует ветер: С - северный, СВ - северо-восточный, В - восточный, ЮВ - юго-восточный, Ю - южный, ЮЗ - юго-западный, З - западный, СЗ - северо-западный.
Видимость - горизонтальная дальность видимости в метрах или километрах. При видимости от 1 до 10 км при отсутствии осадков обычно наблюдается дымка, при ухудшении видимости до 1 км и менее - туман. В сухую погоду видимость может ухудшаться дымом, пылью или мглою.
Явления - указаны атмосферные явления, наблюдавшиеся в срок или в последний час перед сроком; фигурными скобками обозначены явления, наблюдавшиеся между сроками (за 1-3 часа до срока); квадратными скобками обозначены град или гололедные отложения с указанием их диаметра в мм.
Облачность - указаны через наклонную черту общая и нижняя облачность в баллах и высота нижней границы облаков в метрах; квадратными скобками обозначены формы облаков: Ci - перистые, Cs - перисто-слоистые, Cc - перисто-кучевые, Ac - высококучевые, As - высокослоистые, Sc - слоисто-кучевые, Ns - слоисто-дождевые, Cu - кучевые, Cb - кучево-дождевые. Подробнее классификацию облаков см. в Атласе облаков (PDF).
T - Температура воздуха - температура, измеренная на высоте 2 м над землей.
Td - Температура точки росы - температура, при понижении до которой содержащийся в воздухе водяной пар достигнет насыщения.
f - Относительная влажность воздуха - влажноcть воздуха, измеренная на высоте 2 м над землей.
Te - Эффективная температура - температура, которую ощущает одетый по сезону человек в тени. Характеристика душности погоды. При расчете учитывается влияние влажности воздуха и скорости ветра на теплоощущения человека.
Tes - Эффективная температура на солнце - температура, которую ощущает человек, с поправкой на солнечный нагрев. Характеристика знойности погоды. Зависит от высоты солнца над горизонтом, облачности и скорости ветра. Ночью, в пасмурную погоду, а также при ветре 12 м/с и более поправка равна нулю.
P - Атмосферное давление - приведенное к уровню моря атмосферное давление.
Po - Атмосферное давление - измеренное на уровне метеостанции атмосферное давление.
Tmin - Минимальная температура - минимум температуры воздуха на высоте 2 м над землей.
Tmax - Максимальная температура - максимум температуры воздуха на высоте 2 м над землей.
R - Количество осадков - Количество выпавших осадков, мм. При наведении курсора мыши на число - период времени, за который выпало указанное количество осадков.
S - Снежный покров - Высота снежного покрова, см. При наведении курсора мыши на число - состояние снежного покрова и степень покрытия местности в баллах.